User: anonymous   Login
Location: Newark
(44.6394°N, 22.2943°E)
Time: 13:37:26
(UTC+00:00)
Language:

FLOCK 4X 17 - Orbit

View from above orbital plane
View from above orbital plane
View from above satellite
View from above satellite

Ground track
Ground track

The orbit data is extracted from the following two-line orbital elements,

1 51035U 22002BD  22268.74439121  .00013654  00000-0  70116-3 0  9998
2 51035  97.4792 334.4620 0009908  87.2968 272.9399 15.16579091 38615
Epoch (UTC): 25 September 2022 17:51:55
Eccentricity: 0.0009908
inclination: 97.4792°
perigee height: 509 km
apogee height: 523 km
right ascension of ascending node: 334.4620°
argument of perigee: 87.2968°
revolutions per day: 15.16579091
mean anomaly at epoch: 272.9399°
orbit number at epoch: 3861

The dashed part of the orbit path shows where the satellite is in the earth's shadow,  

DLR